Satellite-Ground Cal/Val Region Overpasses Predictions

Prediction of Satellite NPP Overpassing Cal/Val Region: PacNW

Region Location: (Latitude: 10.00, Longitude: 139.50) to (Latitude: 22.70, Longitude: 165.60).

Table of predicted overpasses for the next 14.0 days since TLE Epoch: 7/29/2023
Interval Starting Time Starting Location Ending Time Ending Location
1 07/29/2023 02:22:03 ( 11.03, 164.40) 07/29/2023 02:25:21 ( 22.66, 161.63)
2 07/29/2023 14:53:39 ( 22.68, 161.85) 07/29/2023 14:57:14 ( 10.05, 158.85)
3 07/30/2023 03:44:14 ( 10.01, 144.01) 07/30/2023 03:47:50 ( 22.69, 141.00)
4 07/30/2023 14:35:47 ( 18.54, 165.59) 07/30/2023 14:38:12 ( 10.03, 163.60)
5 07/30/2023 16:16:07 ( 22.64, 141.22) 07/30/2023 16:18:08 ( 15.54, 139.50)
6 07/31/2023 03:25:12 ( 10.04, 148.76) 07/31/2023 03:28:47 ( 22.66, 145.77)
7 07/31/2023 15:57:05 ( 22.67, 145.99) 07/31/2023 16:00:40 ( 10.05, 142.99)
8 08/01/2023 03:06:10 ( 10.00, 153.53) 08/01/2023 03:09:46 ( 22.69, 150.52)
9 08/01/2023 15:38:03 ( 22.65, 150.73) 08/01/2023 15:41:38 ( 10.02, 147.74)
10 08/02/2023 02:47:08 ( 10.03, 158.28) 08/02/2023 02:50:43 ( 22.66, 155.28)
11 08/02/2023 15:19:01 ( 22.68, 155.50) 08/02/2023 15:22:36 ( 10.05, 152.50)
12 08/03/2023 02:28:06 ( 10.00, 163.04) 08/03/2023 02:31:42 ( 22.69, 160.03)
13 08/03/2023 15:00:00 ( 22.65, 160.24) 08/03/2023 15:03:35 ( 10.02, 157.25)
14 08/04/2023 02:11:43 ( 19.37, 165.60) 08/04/2023 02:12:39 ( 22.66, 164.79)
15 08/04/2023 03:50:34 ( 10.04, 142.41) 08/04/2023 03:54:03 ( 22.31, 139.50)
16 08/04/2023 14:40:57 ( 22.67, 165.01) 08/04/2023 14:44:32 ( 10.05, 162.01)
17 08/04/2023 16:22:27 ( 22.67, 139.63) 08/04/2023 16:22:35 ( 22.20, 139.51)
18 08/05/2023 03:31:32 ( 10.01, 147.17) 08/05/2023 03:35:08 ( 22.70, 144.16)
19 08/05/2023 16:03:25 ( 22.69, 144.39) 08/05/2023 16:07:01 ( 10.01, 141.38)
20 08/06/2023 03:12:30 ( 10.05, 151.92) 08/06/2023 03:16:05 ( 22.67, 148.92)
21 08/06/2023 15:44:23 ( 22.66, 149.14) 08/06/2023 15:47:58 ( 10.04, 146.14)
22 08/07/2023 02:53:28 ( 10.02, 156.68) 08/07/2023 02:57:03 ( 22.64, 153.68)
23 08/07/2023 15:25:21 ( 22.69, 153.90) 08/07/2023 15:28:57 ( 10.01, 150.89)
24 08/08/2023 02:34:26 ( 10.06, 161.43) 08/08/2023 02:38:01 ( 22.68, 158.43)
25 08/08/2023 15:06:19 ( 22.65, 158.65) 08/08/2023 15:09:54 ( 10.03, 155.65)
26 08/09/2023 02:16:08 ( 12.62, 165.60) 08/09/2023 02:18:59 ( 22.66, 163.19)
27 08/09/2023 03:56:54 ( 10.04, 140.81) 08/09/2023 03:58:30 ( 15.68, 139.51)
28 08/09/2023 14:47:17 ( 22.67, 163.41) 08/09/2023 14:50:52 ( 10.05, 160.41)
29 08/10/2023 03:37:51 ( 10.02, 145.58) 08/10/2023 03:41:27 ( 22.70, 142.56)
30 08/10/2023 14:31:18 ( 11.90, 165.59) 08/10/2023 14:31:50 ( 10.02, 165.16)
31 08/10/2023 16:09:44 ( 22.69, 142.80) 08/10/2023 16:13:20 ( 10.01, 139.79)
32 08/11/2023 03:18:50 ( 10.05, 150.32) 08/11/2023 03:22:25 ( 22.68, 147.33)
